| time (UTC) | temp F | wind direction | speed knots | gust knots | rain 1hr in | rain 24hr in | rain mn in | humidity % | barometer mb |
| 20260507234525 | 79 | 303 | 1.7 | 6.1 | 0.00 | 0.02 | 0.01 | 21 | 1011.7 |
| 20260507233007 | 79 | 323 | 2.6 | 5.2 | 0.00 | 0.04 | 0.01 | 20 | 1011.7 |
| 20260507231503 | 79 | 321 | 0.9 | 3.5 | 0.00 | 0.04 | 0.01 | 21 | 1011.9 |
| 20260507230003 | 79 | 333 | 0.9 | 6.1 | 0.00 | 0.04 | 0.01 | 21 | 1012.0 |
| 20260507224503 | 79 | 329 | 1.7 | 6.1 | 0.00 | 0.04 | 0.01 | 21 | 1012.0 |
| 20260507223004 | 79 | 262 | 0.9 | 5.2 | 0.00 | 0.04 | 0.01 | 22 | 1012.2 |
| 20260507221503 | 79 | 5 | 0.0 | 8.7 | 0.00 | 0.04 | 0.01 | 22 | 1012.3 |
| 20260507220003 | 79 | 332 | 0.0 | 8.7 | 0.00 | 0.04 | 0.01 | 23 | 1012.4 |
| 20260507214504 | 79 | 265 | 0.9 | 4.3 | 0.00 | 0.04 | 0.01 | 24 | 1012.5 |
| 20260507213010 | 78 | 310 | 0.9 | 7.0 | 0.00 | 0.04 | 0.01 | 22 | 1012.7 |
| 20260507211502 | 78 | 326 | 3.5 | 7.8 | 0.00 | 0.04 | 0.01 | 23 | 1013.0 |
| 20260507210006 | 78 | 240 | 2.6 | 6.1 | 0.00 | 0.04 | 0.01 | 24 | 1013.3 |
| 20260507204504 | 78 | 289 | 1.7 | 8.7 | 0.00 | 0.04 | 0.01 | 24 | 1013.4 |
| 20260507203004 | 78 | 332 | 0.9 | 7.0 | 0.00 | 0.04 | 0.01 | 25 | 1013.7 |
| 20260507201512 | 78 | 290 | 1.7 | 7.0 | 0.00 | 0.04 | 0.01 | 25 | 1014.0 |
| 20260507200009 | 77 | 286 | 1.7 | 5.2 | 0.00 | 0.04 | 0.01 | 25 | 1014.2 |
| 20260507194509 | 76 | 254 | 1.7 | 6.1 | 0.00 | 0.05 | 0.01 | 26 | 1014.4 |
| 20260507193008 | 76 | 265 | 1.7 | 5.2 | 0.00 | 0.05 | 0.01 | 26 | 1014.6 |
| 20260507191511 | 75 | 302 | 1.7 | 5.2 | 0.00 | 0.05 | 0.01 | 25 | 1014.8 |
| 20260507190005 | 74 | 313 | 2.6 | 5.2 | 0.00 | 0.05 | 0.01 | 28 | 1015.0 |
| 20260507184508 | 73 | 293 | 0.9 | 8.7 | 0.00 | 0.05 | 0.01 | 31 | 1015.2 |
| 20260507183007 | 72 | 360 | 1.7 | 12.2 | 0.00 | 0.05 | 0.01 | 33 | 1015.5 |
| 20260507181508 | 71 | 293 | 3.5 | 9.6 | 0.00 | 0.06 | 0.01 | 35 | 1015.6 |
| 20260507180009 | 70 | 265 | 2.6 | 7.8 | 0.00 | 0.06 | 0.01 | 34 | 1015.8 |
| 20260507174516 | 69 | 348 | 0.9 | 5.2 | 0.00 | 0.06 | 0.01 | 39 | 1016.0 |
| 20260507173010 | 67 | 360 | 1.7 | 8.7 | 0.00 | 0.07 | 0.01 | 43 | 1016.2 |
| 20260507171513 | 66 | 313 | 1.7 | 7.0 | 0.00 | 0.07 | 0.01 | 46 | 1016.6 |
| 20260507170011 | 64 | 352 | 2.6 | 7.8 | 0.00 | 0.07 | 0.01 | 49 | 1016.7 |
| 20260507164510 | 62 | 296 | 1.7 | 7.8 | 0.00 | 0.07 | 0.01 | 52 | 1016.9 |
| 20260507163013 | 61 | 337 | 1.7 | 8.7 | 0.00 | 0.07 | 0.01 | 57 | 1017.1 |
| 20260507161509 | 59 | 296 | 2.6 | 8.7 | 0.00 | 0.07 | 0.01 | 58 | 1017.2 |
| 20260507160014 | 59 | 12 | 1.7 | 4.3 | 0.00 | 0.07 | 0.01 | 60 | 1017.3 |
| 20260507154514 | 57 | 343 | 1.7 | 7.8 | 0.00 | 0.07 | 0.01 | 63 | 1017.4 |
| 20260507153015 | 56 | 298 | 0.9 | 2.6 | 0.00 | 0.08 | 0.01 | 69 | 1017.6 |
| 20260507151513 | 54 | 298 | 0.9 | 2.6 | 0.00 | 0.08 | 0.01 | 75 | 1017.7 |
| 20260507150017 | 51 | 313 | 1.7 | 3.5 | 0.00 | 0.10 | 0.01 | 79 | 1017.6 |
| 20260507144516 | 50 | 306 | 0.9 | 5.2 | 0.00 | 0.11 | 0.01 | 81 | 1017.7 |
| 20260507143021 | 48 | 350 | 1.7 | 6.1 | 0.00 | 0.12 | 0.01 | 84 | 1017.8 |
| 20260507141503 | 46 | 329 | 0.9 | 5.2 | 0.00 | 0.12 | 0.01 | 87 | 1017.8 |
| 20260507140007 | 44 | 250 | 2.6 | 8.7 | 0.00 | 0.12 | 0.01 | 91 | 1017.8 |
| 20260507134516 | 42 | 262 | 1.7 | 6.1 | 0.00 | 0.12 | 0.01 | 92 | 1018.1 |
| 20260507133014 | 40 | 260 | 1.7 | 6.1 | 0.00 | 0.13 | 0.01 | 93 | 1018.2 |
| 20260507131528 | 39 | 269 | 1.7 | 5.2 | 0.00 | 0.13 | 0.01 | 93 | 1018.3 |
| 20260507130025 | 37 | 219 | 0.9 | 5.2 | 0.00 | 0.13 | 0.01 | 94 | 1018.5 |
| 20260507124515 | 36 | 259 | 2.6 | 6.1 | 0.00 | 0.13 | 0.01 | 94 | 1018.3 |
| 20260507123013 | 35 | 235 | 0.9 | 2.6 | 0.00 | 0.13 | 0.01 | 94 | 1018.3 |
| 20260507121518 | 34 | 254 | 1.7 | 3.5 | 0.00 | 0.13 | 0.01 | 93 | 1018.4 |
| 20260507120038 | 33 | 275 | 1.7 | 5.2 | 0.00 | 0.13 | 0.01 | 93 | 1018.1 |
| 20260507114508 | 33 | 254 | 0.9 | 4.3 | 0.00 | 0.13 | 0.01 | 93 | 1018.3 |
| 20260507113033 | 34 | 266 | 0.9 | 6.1 | 0.00 | 0.13 | 0.01 | 93 | 1018.3 |
| 20260507111518 | 34 | 283 | 1.7 | 5.2 | 0.00 | 0.13 | 0.01 | 93 | 1018.6 |
| 20260507110026 | 34 | 238 | 0.9 | 3.5 | 0.00 | 0.13 | 0.01 | 93 | 1018.7 |
| 20260507104525 | 34 | 294 | 0.9 | 5.2 | 0.00 | 0.13 | 0.01 | 93 | 1018.8 |
| 20260507103009 | 34 | 259 | 0.9 | 4.3 | 0.00 | 0.13 | 0.01 | 93 | 1018.9 |
| 20260507101516 | 34 | 257 | 0.9 | 4.3 | 0.00 | 0.14 | 0.01 | 93 | 1018.9 |
| 20260507100034 | 34 | 253 | 1.7 | 6.1 | 0.00 | 0.15 | 0.01 | 93 | 1019.1 |
| 20260507094524 | 34 | 263 | 1.7 | 6.1 | 0.00 | 0.19 | 0.01 | 93 | 1019.3 |
| 20260507093024 | 34 | 277 | 1.7 | 5.2 | 0.00 | 0.20 | 0.01 | 93 | 1019.7 |
| 20260507091513 | 34 | 261 | 0.9 | 3.5 | 0.01 | 0.21 | 0.01 | 93 | 1019.7 |
| 20260507090016 | 34 | 246 | 1.7 | 5.2 | 0.01 | 0.21 | 0.01 | 93 | 1019.8 |
| 20260507084524 | 34 | 243 | 1.7 | 7.0 | 0.01 | 0.22 | 0.01 | 93 | 1019.9 |
| 20260507083026 | 35 | 233 | 1.7 | 5.2 | 0.01 | 0.22 | 0.01 | 93 | 1020.0 |
| 20260507081533 | 35 | 258 | 0.9 | 5.2 | 0.00 | 0.21 | 0.00 | 93 | 1020.2 |
| 20260507080016 | 35 | 259 | 2.6 | 3.5 | 0.00 | 0.21 | 0.00 | 93 | 1020.4 |
| 20260507074529 | 35 | 250 | 1.7 | 5.2 | 0.00 | 0.21 | 0.00 | 93 | 1020.5 |
| 20260507073004 | 35 | 262 | 0.0 | 2.6 | 0.00 | 0.22 | 0.00 | 92 | 1020.7 |
| 20260507071508 | 35 | 248 | 0.9 | 2.6 | 0.00 | 0.25 | 0.00 | 93 | 1020.9 |
| 20260507070014 | 36 | 257 | 0.9 | 2.6 | 0.00 | 0.27 | 0.00 | 92 | 1021.1 |
| 20260507064518 | 36 | 254 | 1.7 | 2.6 | 0.00 | 0.28 | 0.00 | 93 | 1021.3 |
| 20260507063021 | 36 | 257 | 0.9 | 1.7 | 0.00 | 0.32 | 0.00 | 92 | 1021.4 |
| 20260507061506 | 37 | 277 | 0.0 | 1.7 | 0.00 | 0.34 | 0.00 | 92 | 1021.7 |
| 20260507060010 | 37 | 257 | 0.0 | 1.7 | 0.00 | 0.36 | 0.00 | 92 | 1021.7 |
| 20260507054516 | 38 | 294 | 0.0 | 1.7 | 0.00 | 0.39 | 0.00 | 92 | 1021.7 |
| 20260507053023 | 39 | 294 | 0.0 | 1.7 | 0.00 | 0.41 | 0.00 | 92 | 1021.7 |
| 20260507051522 | 39 | 294 | 0.0 | 1.7 | 0.00 | 0.43 | 0.00 | 92 | 1021.8 |
| 20260507050007 | 39 | 306 | 0.0 | 1.7 | 0.00 | 0.45 | 0.00 | 92 | 1021.9 |
| 20260507044516 | 39 | 279 | 0.0 | 1.7 | 0.00 | 0.45 | 0.45 | 92 | 1021.9 |
| 20260507043017 | 40 | 243 | 0.0 | 1.7 | 0.00 | 0.45 | 0.45 | 92 | 1021.8 |
| 20260507041520 | 40 | 243 | 0.0 | 2.6 | 0.00 | 0.45 | 0.45 | 92 | 1022.1 |
| 20260507040026 | 39 | 352 | 0.0 | 1.7 | 0.00 | 0.45 | 0.45 | 92 | 1022.0 |
| 20260507034514 | 39 | 352 | 0.0 | 1.7 | 0.00 | 0.45 | 0.45 | 92 | 1022.1 |
| 20260507033016 | 40 | 352 | 0.0 | 1.7 | 0.00 | 0.45 | 0.45 | 91 | 1021.9 |
| 20260507031519 | 40 | 352 | 0.0 | 1.7 | 0.00 | 0.45 | 0.45 | 91 | 1021.8 |
| 20260507030023 | 41 | 352 | 0.0 | 0.0 | 0.00 | 0.45 | 0.45 | 91 | 1021.8 |
| 20260507024525 | 41 | 352 | 0.0 | 1.7 | 0.00 | 0.45 | 0.45 | 91 | 1021.5 |
| 20260507023016 | 42 | 352 | 0.0 | 1.7 | 0.00 | 0.45 | 0.45 | 91 | 1021.3 |
| 20260507021520 | 42 | 352 | 0.0 | 0.0 | 0.00 | 0.45 | 0.45 | 91 | 1021.0 |
| 20260507020025 | 43 | 352 | 0.0 | 0.0 | 0.00 | 0.45 | 0.45 | 90 | 1020.9 |
| 20260507014526 | 43 | 352 | 0.0 | 0.0 | 0.00 | 0.45 | 0.45 | 90 | 1020.7 |
| 20260507013025 | 43 | 352 | 0.0 | 1.7 | 0.00 | 0.45 | 0.45 | 90 | 1020.7 |
| 20260507011514 | 44 | 352 | 0.9 | 1.7 | 0.00 | 0.45 | 0.45 | 90 | 1020.8 |
| 20260507010030 | 44 | 341 | 1.7 | 3.5 | 0.01 | 0.45 | 0.45 | 90 | 1021.0 |
| 20260507004526 | 44 | 347 | 1.7 | 4.3 | 0.01 | 0.45 | 0.45 | 89 | 1020.8 |
| 20260507003028 | 45 | 338 | 1.7 | 2.6 | 0.03 | 0.45 | 0.45 | 89 | 1020.8 |
| 20260507001530 | 45 | 286 | 0.0 | 0.0 | 0.03 | 0.45 | 0.45 | 88 | 1020.6 |
| 20260507000020 | 45 | 286 | 0.0 | 0.0 | 0.02 | 0.44 | 0.44 | 88 | 1020.8 |